Location: Unspecified
(0.0000°N, 0.0000°E)
Time: 18:25:00
(UTC+00:00)

STARLINK 1039 - Pass Details

Date: 15 January 2020
Orbit: 548 x 551 km, 53.0° (Epoch: 17 January)

Event Time Altitude Azimuth Distance (km) Brightness Sun altitude
Rises 18:36:00 0° 343° (NNW) 2,698 7.1 -6.2°
Reaches altitude 10° 18:38:26 10° 355° (N) 1,809 6.1 -6.8°
Maximum altitude 18:42:01 29° 56° (NE) 1,016 4.4 -7.6°
Drops below altitude 10° 18:45:38 10° 117° (ESE) 1,818 5.9 -8.5°
Sets 18:48:05 0° 128° (SE) 2,714 6.9 -9.0°
